Regional Weather Roundup
Issued by NWS

Home | Current Version | Previous Version | Graphics & Text | Print | Product List | Glossary On
Versions: 1 2 3 4 5 6 7 8 9 10 11 12 13 14 15 16 17 18 19 20 21 22 23 24 25 26 27 28 29 30 31 32 33 34 35 36 37 38 39 40 41 42 43 44 45 46 47 48 49 50
000
ASUS43 KBIS 162102
RWRND

NORTH DAKOTA REGIONAL WEATHER ROUNDUP
NATIONAL WEATHER SERVICE BISMARCK ND
300 PM CST TUE JAN 16 2018

NOTE: "FAIR" INDICATES FEW OR NO CLOUDS BELOW 12,000 FEET WITH NO
SIGNIFICANT WEATHER AND/OR OBSTRUCTIONS TO VISIBILITY.


NDZ001>003-009>011-017-162200-
NORTHWEST NORTH DAKOTA

CITY           SKY/WX    TMP DP  RH WIND       PRES   REMARKS
WILLISTON      MOSUNNY    8  -5  55 SW5       30.30F WCI   0
MINOT          CLOUDY    12  -5  46 S10G21    30.32F WCI  -1
MINOT AFB      CLOUDY    12  -4  50 S13       30.31F WCI  -3
$$

NDZ018>021-031>035-040>046-162200-
SOUTHWEST NORTH DAKOTA

CITY           SKY/WX    TMP DP  RH WIND       PRES   REMARKS
BISMARCK       SUNNY     10  -7  46 SW13      30.46F WCI  -5
DICKINSON      SUNNY     16  -2  45 S13       30.27F WCI   2
GARRISON         N/A     10  -5  50 SW13      30.36F WCI  -5
HETTINGER ARPT SUNNY     15  -4  42 S12       30.33F WCI   2
$$

NDZ004>008-012>016-024-026-027-054-162200-
NORTHEAST NORTH DAKOTA

CITY           SKY/WX    TMP DP  RH WIND       PRES   REMARKS
GRAND FORKS    PTSUNNY    4  -4  69 S16       30.53F WCI -15
GRND FRKS AFB  CLOUDY     6  -5  59 SW12      30.52F WCI  -9
DEVILS LAKE    CLOUDY     9  -3  58 S14       30.43F WCI  -7
$$

NDZ022-023-025-028>030-036>039-047>053-162200-
SOUTHEAST NORTH DAKOTA

CITY           SKY/WX    TMP DP  RH WIND       PRES   REMARKS
FARGO          FAIR       3  -7  63 S15       30.60F WCI -16
JAMESTOWN      CLOUDY     7  -4  60 SW14      30.48F WCI -10
$$




USA.gov is the U.S. government's official web portal to all federal, state and local government web resources and services.